When you browse on this site, cookies collect data to enhance your experience and personalize the content and advertising you see.
Visit our Privacy Policy to learn more. By continuing to use the site, you agree to this use of cookies and data.
  • en Suisse
  • Liste des pays
  • À 7 jours
  • Température de l'eau
  • Carte satellitaire
  • Carte météo
  • Widgets météo
  • user-avatar
    Se connecter

    Météo par heure à Pridorozhnyy

    Ce jour, 21 Février, Jeudi

    Heure Température Précipitation Vent Pression Humidité
    00:00 -2°C° 0.1 mm 4 m/s 737 mmHg 92%
    01:00 -2°C° 0 mm 4 m/s 737 mmHg 92%
    02:00 -2°C° 0 mm 4 m/s 736 mmHg 93%
    03:00 -2°C° 0 mm 4 m/s 736 mmHg 93%
    04:00 -2°C° 0.1 mm 4 m/s 735 mmHg 93%
    05:00 -2°C° 0.1 mm 4 m/s 735 mmHg 92%
    06:00 -2°C° 0.1 mm 4 m/s 734 mmHg 92%
    07:00 -2°C° 0.1 mm 5 m/s 734 mmHg 91%
    08:00 -2°C° 0.1 mm 5 m/s 734 mmHg 90%
    09:00 -2°C° 0.1 mm 5 m/s 734 mmHg 90%
    10:00 -2°C° 0.3 mm 5 m/s 733 mmHg 90%
    11:00 -1°C° 0.3 mm 5 m/s 733 mmHg 90%
    12:00 -1°C° 0.3 mm 4 m/s 733 mmHg 90%
    13:00 -1°C° 0.1 mm 4 m/s 733 mmHg 89%
    14:00 -1°C° 0.1 mm 4 m/s 733 mmHg 88%
    15:00 0°C° 0.1 mm 3 m/s 733 mmHg 87%
    16:00 -2°C° 0 mm 3 m/s 733 mmHg 89%
    17:00 -3°C° 0 mm 2 m/s 733 mmHg 91%
    18:00 -4°C° 0 mm 2 m/s 733 mmHg 92%
    19:00 -4°C° 0.1 mm 2 m/s 733 mmHg 93%
    20:00 -4°C° 0.1 mm 2 m/s 733 mmHg 94%
    21:00 -4°C° 0.1 mm 2 m/s 733 mmHg 95%
    22:00 -4°C° 0.3 mm 2 m/s 733 mmHg 95%
    23:00 -4°C° 0.3 mm 2 m/s 733 mmHg 95%

    Demain, 22 Février, Vendredi

    Heure Température Précipitation Vent Pression Humidité
    00:00 -4°C° 0.3 mm 2 m/s 733 mmHg 96%
    01:00 -5°C° 0.4 mm 3 m/s 733 mmHg 95%
    02:00 -5°C° 0.4 mm 3 m/s 733 mmHg 94%
    03:00 -5°C° 0.4 mm 4 m/s 734 mmHg 93%
    04:00 -7°C° 0.2 mm 5 m/s 734 mmHg 91%
    05:00 -8°C° 0.2 mm 5 m/s 734 mmHg 89%
    06:00 -10°C° 0.2 mm 6 m/s 734 mmHg 87%
    07:00 -11°C° 0 mm 6 m/s 735 mmHg 87%
    08:00 -11°C° 0 mm 6 m/s 736 mmHg 86%
    09:00 -11°C° 0 mm 6 m/s 736 mmHg 85%
    10:00 -11°C° 0.1 mm 5 m/s 737 mmHg 84%
    11:00 -11°C° 0.1 mm 5 m/s 738 mmHg 83%
    12:00 -10°C° 0.1 mm 5 m/s 738 mmHg 82%
    13:00 -10°C° 0.1 mm 5 m/s 739 mmHg 81%
    14:00 -10°C° 0.1 mm 5 m/s 740 mmHg 81%
    15:00 -10°C° 0.1 mm 5 m/s 740 mmHg 81%
    16:00 -11°C° 0.1 mm 5 m/s 741 mmHg 83%
    17:00 -11°C° 0.1 mm 5 m/s 742 mmHg 84%
    18:00 -11°C° 0.1 mm 5 m/s 743 mmHg 86%
    19:00 -12°C° 0.1 mm 5 m/s 743 mmHg 86%
    20:00 -12°C° 0.1 mm 5 m/s 744 mmHg 86%
    21:00 -11°C° 0.1 mm 4 m/s 745 mmHg 86%
    22:00 -11°C° 0.1 mm 4 m/s 746 mmHg 86%
    23:00 -11°C° 0.1 mm 4 m/s 746 mmHg 87%

    Après-demain, 23 Février, Samedi

    Heure Température Précipitation Vent Pression Humidité
    00:00 -11°C° 0.1 mm 4 m/s 747 mmHg 87%
    01:00 -11°C° 0 mm 4 m/s 748 mmHg 87%
    02:00 -12°C° 0 mm 4 m/s 749 mmHg 87%
    03:00 -12°C° 0 mm 4 m/s 749 mmHg 87%
    04:00 -12°C° 0 mm 4 m/s 750 mmHg 87%
    05:00 -12°C° 0 mm 4 m/s 751 mmHg 87%
    06:00 -12°C° 0 mm 3 m/s 751 mmHg 88%
    07:00 -12°C° 0 mm 3 m/s 752 mmHg 87%
    08:00 -13°C° 0 mm 3 m/s 753 mmHg 87%
    09:00 -13°C° 0 mm 3 m/s 754 mmHg 86%
    10:00 -12°C° 0 mm 3 m/s 754 mmHg 85%
    11:00 -12°C° 0 mm 3 m/s 755 mmHg 84%
    12:00 -10°C° 0 mm 3 m/s 755 mmHg 82%
    13:00 -10°C° 0 mm 3 m/s 755 mmHg 82%
    14:00 -10°C° 0 mm 3 m/s 756 mmHg 82%
    15:00 -10°C° 0 mm 3 m/s 756 mmHg 82%
    16:00 -9°C° 0 mm 2 m/s 756 mmHg 84%
    17:00 -10°C° 0 mm 2 m/s 756 mmHg 87%
    18:00 -12°C° 0 mm 2 m/s 756 mmHg 89%
    19:00 -12°C° 0 mm 2 m/s 757 mmHg 90%
    20:00 -12°C° 0 mm 2 m/s 757 mmHg 91%
    21:00 -12°C° 0 mm 2 m/s 757 mmHg 92%
    22:00 -10°C° 0 mm 1 m/s 757 mmHg 93%
    23:00 -11°C° 0 mm 1 m/s 757 mmHg 93%

    24 Février, Dimanche

    Heure Température Précipitation Vent Pression Humidité
    00:00 -11°C° 0 mm 1 m/s 757 mmHg 93%
    01:00 -11°C° 0 mm 1 m/s 757 mmHg 94%
    02:00 -12°C° 0 mm 1 m/s 757 mmHg 94%
    03:00 -12°C° 0 mm 1 m/s 757 mmHg 94%
    04:00 -14°C° 0 mm 2 m/s 756 mmHg 95%
    05:00 -15°C° 0 mm 2 m/s 756 mmHg 95%
    06:00 -15°C° 0 mm 2 m/s 756 mmHg 95%
    07:00 -14°C° 0 mm 2 m/s 756 mmHg 94%
    08:00 -14°C° 0 mm 2 m/s 756 mmHg 93%
    09:00 -15°C° 0 mm 3 m/s 756 mmHg 91%
    10:00 -14°C° 0 mm 3 m/s 756 mmHg 88%
    11:00 -13°C° 0 mm 3 m/s 756 mmHg 85%
    12:00 -12°C° 0 mm 3 m/s 756 mmHg 82%
    13:00 -10°C° 0 mm 3 m/s 755 mmHg 80%
    14:00 -9°C° 0 mm 3 m/s 755 mmHg 79%
    15:00 -9°C° 0 mm 3 m/s 755 mmHg 77%
    16:00 -10°C° 0 mm 3 m/s 755 mmHg 79%
    17:00 -10°C° 0 mm 3 m/s 754 mmHg 82%
    18:00 -12°C° 0 mm 3 m/s 754 mmHg 85%
    19:00 -12°C° 0 mm 3 m/s 754 mmHg 86%
    20:00 -13°C° 0 mm 3 m/s 754 mmHg 88%
    21:00 -13°C° 0 mm 3 m/s 754 mmHg 89%
    22:00 -13°C° 0 mm 3 m/s 754 mmHg 90%
    23:00 -13°C° 0 mm 3 m/s 754 mmHg 91%

    25 Février, Lundi

    Heure Température Précipitation Vent Pression Humidité
    00:00 -13°C° 0 mm 3 m/s 754 mmHg 92%
    01:00 -13°C° 0 mm 3 m/s 753 mmHg 93%
    02:00 -13°C° 0 mm 3 m/s 753 mmHg 93%
    03:00 -12°C° 0 mm 3 m/s 752 mmHg 94%
    04:00 -12°C° 0 mm 3 m/s 752 mmHg 94%
    05:00 -12°C° 0 mm 3 m/s 751 mmHg 94%
    06:00 -12°C° 0 mm 3 m/s 751 mmHg 94%
    07:00 -10°C° 0 mm 3 m/s 751 mmHg 94%
    08:00 -10°C° 0 mm 3 m/s 750 mmHg 93%
    09:00 -10°C° 0 mm 3 m/s 750 mmHg 93%
    10:00 -10°C° 0 mm 4 m/s 749 mmHg 92%
    11:00 -9°C° 0 mm 4 m/s 749 mmHg 91%
    12:00 -8°C° 0 mm 4 m/s 748 mmHg 90%
    13:00 -8°C° 0 mm 4 m/s 747 mmHg 89%
    14:00 -7°C° 0 mm 4 m/s 747 mmHg 89%
    15:00 -7°C° 0 mm 5 m/s 746 mmHg 89%
    16:00 -7°C° 0 mm 5 m/s 745 mmHg 90%
    17:00 -8°C° 0 mm 5 m/s 745 mmHg 91%
    18:00 -8°C° 0 mm 5 m/s 745 mmHg 91%
    19:00 -8°C° 0 mm 4 m/s 744 mmHg 91%
    20:00 -8°C° 0 mm 4 m/s 744 mmHg 91%
    21:00 -8°C° 0 mm 4 m/s 744 mmHg 91%
    22:00 -8°C° 0 mm 4 m/s 744 mmHg 92%
    23:00 -8°C° 0 mm 4 m/s 743 mmHg 92%

    26 Février, Mardi

    Heure Température Précipitation Vent Pression Humidité
    00:00 -7°C° 0 mm 3 m/s 743 mmHg 93%
    01:00 -8°C° 0.1 mm 3 m/s 743 mmHg 94%
    02:00 -7°C° 0.1 mm 2 m/s 743 mmHg 95%
    03:00 -7°C° 0.1 mm 2 m/s 743 mmHg 96%
    04:00 -7°C° 0 mm 2 m/s 743 mmHg 96%
    05:00 -4°C° 0 mm 1 m/s 743 mmHg 96%
    06:00 -4°C° 0 mm 1 m/s 743 mmHg 97%
    07:00 -4°C° 0 mm 1 m/s 743 mmHg 96%
    08:00 -3°C° 0 mm 1 m/s 743 mmHg 95%
    09:00 -3°C° 0 mm 1 m/s 743 mmHg 94%
    10:00 -2°C° 0 mm 1 m/s 742 mmHg 92%
    11:00 -1°C° 0 mm 1 m/s 742 mmHg 89%
    12:00 0°C° 0 mm 1 m/s 741 mmHg 86%
    13:00 0°C° 0 mm 1 m/s 741 mmHg 85%
    14:00 0°C° 0 mm 1 m/s 740 mmHg 83%
    15:00 0°C° 0 mm 1 m/s 739 mmHg 81%
    16:00 -1°C° 0 mm 1 m/s 739 mmHg 84%
    17:00 -2°C° 0 mm 1 m/s 738 mmHg 87%
    18:00 -4°C° 0 mm 2 m/s 738 mmHg 90%
    19:00 -4°C° 0.1 mm 2 m/s 737 mmHg 90%
    20:00 -4°C° 0.1 mm 2 m/s 736 mmHg 90%
    21:00 -5°C° 0.1 mm 3 m/s 736 mmHg 90%
    22:00 -6°C° 0.1 mm 3 m/s 736 mmHg 90%
    23:00 -7°C° 0.1 mm 4 m/s 735 mmHg 90%
    Voir plus